Year,Month,Day,Hour,Minute,Value (Times are PST for windgust in km/hr)
2010,04,03,00,00,45.10
2010,04,03,00,01,38.60
2010,04,03,00,02,41.80
2010,04,03,00,03,29.00
2010,04,03,00,04,32.20
2010,04,03,00,05,43.50
2010,04,03,00,06,37.00
2010,04,03,00,07,35.40
2010,04,03,00,08,37.00
2010,04,03,00,09,24.20
2010,04,03,00,10,29.00
2010,04,03,00,11,45.10
2010,04,03,00,12,32.20
2010,04,03,00,13,29.00
2010,04,03,00,14,37.00
2010,04,03,00,15,43.50
2010,04,03,00,16,41.80
2010,04,03,00,17,38.60
2010,04,03,00,18,43.50
2010,04,03,00,19,29.00
2010,04,03,00,20,37.00
2010,04,03,00,21,33.80
2010,04,03,00,22,38.60
2010,04,03,00,23,37.00
2010,04,03,00,24,40.20
2010,04,03,00,25,38.60
2010,04,03,00,26,38.60
2010,04,03,00,27,45.10
2010,04,03,00,28,45.10
2010,04,03,00,29,45.10
2010,04,03,00,30,40.20
2010,04,03,00,31,41.80
2010,04,03,00,32,38.60
2010,04,03,00,33,40.20
2010,04,03,00,34,35.40
2010,04,03,00,35,45.10
2010,04,03,00,36,54.70
2010,04,03,00,37,45.10
2010,04,03,00,38,40.20
2010,04,03,00,39,43.50
2010,04,03,00,40,41.80
2010,04,03,00,41,41.80
2010,04,03,00,42,38.60
2010,04,03,00,43,38.60
2010,04,03,00,44,40.20
2010,04,03,00,45,33.80
2010,04,03,00,46,61.20
2010,04,03,00,47,33.80
2010,04,03,00,48,53.10
2010,04,03,00,49,46.70
2010,04,03,00,50,49.90
2010,04,03,00,51,35.40
2010,04,03,00,52,38.60
2010,04,03,00,53,29.00
2010,04,03,00,54,43.50
2010,04,03,00,55,40.20
2010,04,03,00,56,40.20
2010,04,03,00,57,33.80
2010,04,03,00,58,43.50
2010,04,03,00,59,35.40
2010,04,03,01,00,33.80
2010,04,03,01,01,37.00
2010,04,03,01,02,41.80
2010,04,03,01,03,38.60
2010,04,03,01,04,45.10
2010,04,03,01,05,37.00
2010,04,03,01,06,32.20
2010,04,03,01,07,40.20
2010,04,03,01,08,40.20
2010,04,03,01,09,25.70
2010,04,03,01,10,30.60
2010,04,03,01,11,27.40
2010,04,03,01,12,30.60
2010,04,03,01,13,29.00
2010,04,03,01,14,33.80
2010,04,03,01,15,29.00
2010,04,03,01,16,20.90
2010,04,03,01,17,30.60
2010,04,03,01,18,27.40
2010,04,03,01,19,25.70
2010,04,03,01,20,27.40
2010,04,03,01,21,30.60
2010,04,03,01,22,17.70
2010,04,03,01,23,20.90
2010,04,03,01,24,22.50
2010,04,03,01,25,29.00
2010,04,03,01,26,27.40
2010,04,03,01,27,24.20
2010,04,03,01,28,25.70
2010,04,03,01,29,35.40
2010,04,03,01,30,33.80
2010,04,03,01,31,30.60
2010,04,03,01,32,27.40
2010,04,03,01,33,25.70
2010,04,03,01,34,32.20
2010,04,03,01,35,32.20
2010,04,03,01,36,20.90
2010,04,03,01,37,22.50
2010,04,03,01,38,25.70
2010,04,03,01,39,20.90
2010,04,03,01,40,29.00
2010,04,03,01,41,32.20
2010,04,03,01,42,33.80
2010,04,03,01,43,37.00
2010,04,03,01,44,33.80
2010,04,03,01,45,35.40
2010,04,03,01,46,25.70
2010,04,03,01,47,32.20
2010,04,03,01,48,30.60
2010,04,03,01,49,25.70
2010,04,03,01,50,25.70
2010,04,03,01,51,27.40
2010,04,03,01,52,25.70
2010,04,03,01,53,25.70
2010,04,03,01,54,24.20
2010,04,03,01,55,20.90
2010,04,03,01,56,17.70
2010,04,03,01,57,20.90
2010,04,03,01,58,33.80
2010,04,03,01,59,22.50
2010,04,03,02,00,24.20
2010,04,03,02,01,25.70
2010,04,03,02,02,29.00
2010,04,03,02,03,30.60
2010,04,03,02,04,29.00
2010,04,03,02,05,25.70
2010,04,03,02,06,24.20
2010,04,03,02,07,27.40
2010,04,03,02,08,22.50
2010,04,03,02,09,20.90
2010,04,03,02,10,17.70
2010,04,03,02,11,25.70
2010,04,03,02,12,20.90
2010,04,03,02,13,27.40
2010,04,03,02,14,33.80
2010,04,03,02,15,35.40
2010,04,03,02,16,37.00
2010,04,03,02,17,37.00
2010,04,03,02,18,30.60
2010,04,03,02,19,41.80
2010,04,03,02,20,40.20
2010,04,03,02,21,38.60
2010,04,03,02,22,37.00
2010,04,03,02,23,37.00
2010,04,03,02,24,35.40
2010,04,03,02,25,32.20
2010,04,03,02,26,35.40
2010,04,03,02,27,29.00
2010,04,03,02,28,24.20
2010,04,03,02,29,24.20
2010,04,03,02,30,25.70
2010,04,03,02,31,29.00
2010,04,03,02,32,24.20
2010,04,03,02,33,27.40
2010,04,03,02,34,30.60
2010,04,03,02,35,27.40
2010,04,03,02,36,25.70
2010,04,03,02,37,29.00
2010,04,03,02,38,24.20
2010,04,03,02,39,25.70
2010,04,03,02,40,17.70
2010,04,03,02,41,22.50
2010,04,03,02,42,19.30
2010,04,03,02,43,22.50
2010,04,03,02,44,33.80
2010,04,03,02,45,30.60
2010,04,03,02,46,33.80
2010,04,03,02,47,35.40
2010,04,03,02,48,32.20
2010,04,03,02,49,27.40
2010,04,03,02,50,35.40
2010,04,03,02,51,22.50
2010,04,03,02,52,22.50
2010,04,03,02,53,25.70
2010,04,03,02,54,27.40
2010,04,03,02,55,25.70
2010,04,03,02,56,30.60
2010,04,03,02,57,29.00
2010,04,03,02,58,20.90
2010,04,03,02,59,19.30
2010,04,03,03,00,25.70
2010,04,03,03,01,33.80
2010,04,03,03,02,16.10
2010,04,03,03,03,19.30
2010,04,03,03,04,17.70
2010,04,03,03,05,30.60
2010,04,03,03,06,33.80
2010,04,03,03,07,25.70
2010,04,03,03,08,32.20
2010,04,03,03,09,22.50
2010,04,03,03,10,20.90
2010,04,03,03,11,22.50
2010,04,03,03,12,20.90
2010,04,03,03,13,32.20
2010,04,03,03,14,29.00
2010,04,03,03,15,22.50
2010,04,03,03,16,16.10
2010,04,03,03,17,20.90
2010,04,03,03,18,30.60
2010,04,03,03,19,30.60
2010,04,03,03,20,33.80
2010,04,03,03,21,19.30
2010,04,03,03,22,22.50
2010,04,03,03,23,14.50
2010,04,03,03,24,16.10
2010,04,03,03,25,11.30
2010,04,03,03,26,16.10
2010,04,03,03,27,19.30
2010,04,03,03,28,20.90
2010,04,03,03,29,17.70
2010,04,03,03,30,17.70
2010,04,03,03,31,17.70
2010,04,03,03,32,29.00
2010,04,03,03,33,25.70
2010,04,03,03,34,32.20
2010,04,03,03,35,32.20
2010,04,03,03,36,29.00
2010,04,03,03,37,32.20
2010,04,03,03,38,20.90
2010,04,03,03,39,20.90
2010,04,03,03,40,19.30
2010,04,03,03,41,17.70
2010,04,03,03,42,33.80
2010,04,03,03,43,38.60
2010,04,03,03,44,27.40
2010,04,03,03,45,27.40
2010,04,03,03,46,32.20
2010,04,03,03,47,33.80
2010,04,03,03,48,37.00
2010,04,03,03,49,24.20
2010,04,03,03,50,20.90
2010,04,03,03,51,20.90
2010,04,03,03,52,25.70
2010,04,03,03,53,30.60
2010,04,03,03,54,29.00
2010,04,03,03,55,19.30
2010,04,03,03,56,38.60
2010,04,03,03,57,30.60
2010,04,03,03,58,19.30
2010,04,03,03,59,27.40
2010,04,03,04,00,20.90
2010,04,03,04,01,17.70
2010,04,03,04,02,16.10
2010,04,03,04,03,20.90
2010,04,03,04,04,24.20
2010,04,03,04,05,33.80
2010,04,03,04,06,27.40
2010,04,03,04,07,27.40
2010,04,03,04,08,30.60
2010,04,03,04,09,24.20
2010,04,03,04,10,29.00
2010,04,03,04,11,30.60
2010,04,03,04,12,27.40
2010,04,03,04,13,22.50
2010,04,03,04,14,22.50
2010,04,03,04,15,22.50
2010,04,03,04,16,29.00
2010,04,03,04,17,22.50
2010,04,03,04,18,17.70
2010,04,03,04,19,25.70
2010,04,03,04,20,30.60
2010,04,03,04,21,46.70
2010,04,03,04,22,56.30
2010,04,03,04,23,43.50
2010,04,03,04,24,38.60
2010,04,03,04,25,37.00
2010,04,03,04,26,37.00
2010,04,03,04,27,43.50
2010,04,03,04,28,22.50
2010,04,03,04,29,32.20
2010,04,03,04,30,30.60
2010,04,03,04,31,25.70
2010,04,03,04,32,33.80
2010,04,03,04,33,24.20
2010,04,03,04,34,29.00
2010,04,03,04,35,27.40
2010,04,03,04,36,24.20
2010,04,03,04,37,19.30
2010,04,03,04,38,25.70
2010,04,03,04,39,25.70
2010,04,03,04,40,24.20
2010,04,03,04,41,17.70
2010,04,03,04,42,27.40
2010,04,03,04,43,29.00
2010,04,03,04,44,24.20
2010,04,03,04,45,25.70
2010,04,03,04,46,25.70
2010,04,03,04,47,25.70
2010,04,03,04,48,25.70
2010,04,03,04,49,33.80
2010,04,03,04,50,33.80
2010,04,03,04,51,22.50
2010,04,03,04,52,32.20
2010,04,03,04,53,32.20
2010,04,03,04,54,25.70
2010,04,03,04,55,20.90
2010,04,03,04,56,19.30
2010,04,03,04,57,20.90
2010,04,03,04,58,20.90
2010,04,03,04,59,19.30
2010,04,03,05,00,19.30
2010,04,03,05,01,24.20
2010,04,03,05,02,22.50
2010,04,03,05,03,19.30
2010,04,03,05,04,19.30
2010,04,03,05,05,16.10
2010,04,03,05,06,17.70
2010,04,03,05,07,22.50
2010,04,03,05,08,27.40
2010,04,03,05,09,27.40
2010,04,03,05,10,25.70
2010,04,03,05,11,25.70
2010,04,03,05,12,22.50
2010,04,03,05,13,40.20
2010,04,03,05,14,24.20
2010,04,03,05,15,27.40
2010,04,03,05,16,25.70
2010,04,03,05,17,32.20
2010,04,03,05,18,35.40
2010,04,03,05,19,25.70
2010,04,03,05,20,24.20
2010,04,03,05,21,20.90
2010,04,03,05,22,24.20
2010,04,03,05,23,27.40
2010,04,03,05,24,22.50
2010,04,03,05,25,22.50
2010,04,03,05,26,33.80
2010,04,03,05,27,37.00
2010,04,03,05,28,27.40
2010,04,03,05,29,27.40
2010,04,03,05,30,29.00
2010,04,03,05,31,29.00
2010,04,03,05,32,29.00
2010,04,03,05,33,22.50
2010,04,03,05,34,27.40
2010,04,03,05,35,16.10
2010,04,03,05,36,24.20
2010,04,03,05,37,17.70
2010,04,03,05,38,16.10
2010,04,03,05,39,14.50
2010,04,03,05,40,17.70
2010,04,03,05,41,19.30
2010,04,03,05,42,19.30
2010,04,03,05,43,14.50
2010,04,03,05,44,16.10
2010,04,03,05,45,14.50
2010,04,03,05,46,19.30
2010,04,03,05,47,24.20
2010,04,03,05,48,22.50
2010,04,03,05,49,20.90
2010,04,03,05,50,19.30
2010,04,03,05,51,20.90
2010,04,03,05,52,17.70
2010,04,03,05,53,27.40
2010,04,03,05,54,25.70
2010,04,03,05,55,19.30
2010,04,03,05,56,22.50
2010,04,03,05,57,14.50
2010,04,03,05,58,20.90
2010,04,03,05,59,20.90
2010,04,03,06,00,16.10
2010,04,03,06,01,11.30
2010,04,03,06,02,22.50
2010,04,03,06,03,16.10
2010,04,03,06,04,14.50
2010,04,03,06,05,16.10
2010,04,03,06,06,20.90
2010,04,03,06,07,22.50
2010,04,03,06,08,17.70
2010,04,03,06,09,17.70
2010,04,03,06,10,20.90
2010,04,03,06,11,14.50
2010,04,03,06,12,14.50
2010,04,03,06,13,19.30
2010,04,03,06,14,35.40
2010,04,03,06,15,33.80
2010,04,03,06,16,29.00
2010,04,03,06,17,24.20
2010,04,03,06,18,16.10
2010,04,03,06,19,16.10
2010,04,03,06,20,20.90
2010,04,03,06,21,16.10
2010,04,03,06,22,17.70
2010,04,03,06,23,14.50
2010,04,03,06,24,32.20
2010,04,03,06,25,20.90
2010,04,03,06,26,25.70
2010,04,03,06,27,20.90
2010,04,03,06,28,24.20
2010,04,03,06,29,35.40
2010,04,03,06,30,29.00
2010,04,03,06,31,32.20
2010,04,03,06,32,24.20
2010,04,03,06,33,29.00
2010,04,03,06,34,17.70
2010,04,03,06,35,20.90
2010,04,03,06,36,19.30
2010,04,03,06,37,17.70
2010,04,03,06,38,19.30
2010,04,03,06,39,27.40
2010,04,03,06,40,20.90
2010,04,03,06,41,16.10
2010,04,03,06,42,16.10
2010,04,03,06,43,16.10
2010,04,03,06,44,17.70
2010,04,03,06,45,22.50
2010,04,03,06,46,17.70
2010,04,03,06,47,16.10
2010,04,03,06,48,12.90
2010,04,03,06,49,20.90
2010,04,03,06,50,16.10
2010,04,03,06,51,11.30
2010,04,03,06,52,14.50
2010,04,03,06,53,11.30
2010,04,03,06,54,27.40
2010,04,03,06,55,20.90
2010,04,03,06,56,11.30
2010,04,03,06,57,16.10
2010,04,03,06,58,11.30
2010,04,03,06,59,8.10
2010,04,03,07,00,12.90
2010,04,03,07,01,14.50
2010,04,03,07,02,17.70
2010,04,03,07,03,14.50
2010,04,03,07,04,9.60
2010,04,03,07,05,16.10
2010,04,03,07,06,11.30
2010,04,03,07,07,12.90
2010,04,03,07,08,11.30
2010,04,03,07,09,14.50
2010,04,03,07,10,4.80
2010,04,03,07,11,6.40
2010,04,03,07,12,11.30
2010,04,03,07,13,9.60
2010,04,03,07,14,6.40
2010,04,03,07,15,6.40
2010,04,03,07,16,17.70
2010,04,03,07,17,17.70
2010,04,03,07,18,8.10
2010,04,03,07,19,16.10
2010,04,03,07,20,16.10
2010,04,03,07,21,17.70
2010,04,03,07,22,17.70
2010,04,03,07,23,17.70
2010,04,03,07,24,17.70
2010,04,03,07,25,14.50
2010,04,03,07,26,16.10
2010,04,03,07,27,9.60
2010,04,03,07,28,11.30
2010,04,03,07,29,8.10
2010,04,03,07,30,8.10
2010,04,03,07,31,16.10
2010,04,03,07,32,14.50
2010,04,03,07,33,6.40
2010,04,03,07,34,11.30
2010,04,03,07,35,16.10
2010,04,03,07,36,19.30
2010,04,03,07,37,16.10
2010,04,03,07,38,17.70
2010,04,03,07,39,17.70
2010,04,03,07,40,17.70
2010,04,03,07,41,22.50
2010,04,03,07,42,22.50
2010,04,03,07,43,19.30
2010,04,03,07,44,19.30
2010,04,03,07,45,24.20
2010,04,03,07,46,19.30
2010,04,03,07,47,9.60
2010,04,03,07,48,16.10
2010,04,03,07,49,27.40
2010,04,03,07,50,24.20
2010,04,03,07,51,14.50
2010,04,03,07,52,17.70
2010,04,03,07,53,16.10
2010,04,03,07,54,24.20
2010,04,03,07,55,19.30
2010,04,03,07,56,19.30
2010,04,03,07,57,20.90
2010,04,03,07,58,22.50
2010,04,03,07,59,24.20
2010,04,03,08,00,25.70
2010,04,03,08,01,22.50
2010,04,03,08,02,22.50
2010,04,03,08,03,30.60
2010,04,03,08,04,29.00
2010,04,03,08,05,37.00
2010,04,03,08,06,33.80
2010,04,03,08,07,24.20
2010,04,03,08,08,17.70
2010,04,03,08,09,17.70
2010,04,03,08,10,20.90
2010,04,03,08,11,20.90
2010,04,03,08,12,35.40
2010,04,03,08,13,24.20
2010,04,03,08,14,30.60
2010,04,03,08,15,27.40
2010,04,03,08,16,29.00
2010,04,03,08,17,32.20
2010,04,03,08,18,24.20
2010,04,03,08,19,20.90
2010,04,03,08,20,17.70
2010,04,03,08,21,17.70
2010,04,03,08,22,17.70
2010,04,03,08,23,16.10
2010,04,03,08,24,11.30
2010,04,03,08,25,11.30
2010,04,03,08,26,11.30
2010,04,03,08,27,6.40
2010,04,03,08,28,11.30
2010,04,03,08,29,8.10
2010,04,03,08,30,6.40
2010,04,03,08,31,6.40
2010,04,03,08,32,4.80
2010,04,03,08,33,6.40
2010,04,03,08,34,8.10
2010,04,03,08,35,6.40
2010,04,03,08,36,4.80
2010,04,03,08,37,4.80
2010,04,03,08,38,11.30
2010,04,03,08,39,9.60
2010,04,03,08,40,6.40
2010,04,03,08,41,6.40
2010,04,03,08,42,6.40
2010,04,03,08,43,8.10
2010,04,03,08,44,6.40
2010,04,03,08,45,4.80
2010,04,03,08,46,4.80
2010,04,03,08,47,3.20
2010,04,03,08,48,6.40
2010,04,03,08,49,9.60
2010,04,03,08,50,9.60
2010,04,03,08,51,17.70
2010,04,03,08,52,17.70
2010,04,03,08,53,12.90
2010,04,03,08,54,14.50
2010,04,03,08,55,11.30
2010,04,03,08,56,6.40
2010,04,03,08,57,8.10
2010,04,03,08,58,9.60
2010,04,03,08,59,14.50
2010,04,03,09,00,20.90
2010,04,03,09,01,19.30
2010,04,03,09,02,12.90
2010,04,03,09,03,14.50
2010,04,03,09,04,14.50
2010,04,03,09,05,19.30
2010,04,03,09,06,16.10
2010,04,03,09,07,20.90
2010,04,03,09,08,17.70
2010,04,03,09,09,9.60
2010,04,03,09,10,11.30
2010,04,03,09,11,16.10
2010,04,03,09,12,20.90
2010,04,03,09,13,12.90
2010,04,03,09,14,8.10
2010,04,03,09,15,9.60
2010,04,03,09,16,14.50
2010,04,03,09,17,11.30
2010,04,03,09,18,19.30
2010,04,03,09,19,24.20
2010,04,03,09,20,16.10
2010,04,03,09,21,16.10
2010,04,03,09,22,11.30
2010,04,03,09,23,14.50
2010,04,03,09,24,17.70
2010,04,03,09,25,19.30
2010,04,03,09,26,20.90
2010,04,03,09,27,19.30
2010,04,03,09,28,17.70
2010,04,03,09,29,20.90
2010,04,03,09,30,27.40
2010,04,03,09,31,25.70
2010,04,03,09,32,29.00
2010,04,03,09,33,20.90
2010,04,03,09,34,17.70
2010,04,03,09,35,16.10
2010,04,03,09,36,19.30
2010,04,03,09,37,20.90
2010,04,03,09,38,19.30
2010,04,03,09,39,16.10
2010,04,03,09,40,20.90
2010,04,03,09,41,27.40
2010,04,03,09,42,27.40
2010,04,03,09,43,25.70
2010,04,03,09,44,30.60
2010,04,03,09,45,29.00
2010,04,03,09,46,25.70
2010,04,03,09,47,24.20
2010,04,03,09,48,32.20
2010,04,03,09,49,22.50
2010,04,03,09,50,19.30
2010,04,03,09,51,17.70
2010,04,03,09,52,29.00
2010,04,03,09,53,35.40
2010,04,03,09,54,33.80
2010,04,03,09,55,30.60
2010,04,03,09,56,29.00
2010,04,03,09,57,25.70
2010,04,03,09,58,19.30
2010,04,03,09,59,24.20
2010,04,03,10,00,22.50
2010,04,03,10,01,17.70
2010,04,03,10,02,20.90
2010,04,03,10,03,19.30
2010,04,03,10,04,24.20
2010,04,03,10,05,17.70
2010,04,03,10,06,25.70
2010,04,03,10,07,32.20
2010,04,03,10,08,25.70
2010,04,03,10,09,29.00
2010,04,03,10,10,27.40
2010,04,03,10,11,19.30
2010,04,03,10,12,20.90
2010,04,03,10,13,20.90
2010,04,03,10,14,20.90
2010,04,03,10,15,24.20
2010,04,03,10,16,22.50
2010,04,03,10,17,17.70
2010,04,03,10,18,20.90
2010,04,03,10,19,19.30
2010,04,03,10,20,19.30
2010,04,03,10,21,22.50
2010,04,03,10,22,27.40
2010,04,03,10,23,24.20
2010,04,03,10,24,20.90
2010,04,03,10,25,25.70
2010,04,03,10,26,20.90
2010,04,03,10,27,14.50
2010,04,03,10,28,16.10
2010,04,03,10,29,19.30
2010,04,03,10,30,32.20
2010,04,03,10,31,20.90
2010,04,03,10,32,29.00
2010,04,03,10,33,30.60
2010,04,03,10,34,29.00
2010,04,03,10,35,22.50
2010,04,03,10,36,24.20
2010,04,03,10,37,19.30
2010,04,03,10,38,27.40
2010,04,03,10,39,20.90
2010,04,03,10,40,9.60
2010,04,03,10,41,9.60
2010,04,03,10,42,8.10
2010,04,03,10,43,9.60
2010,04,03,10,44,12.90
2010,04,03,10,45,17.70
2010,04,03,10,46,20.90
2010,04,03,10,47,19.30
2010,04,03,10,48,11.30
2010,04,03,10,49,8.10
2010,04,03,10,50,11.30
2010,04,03,10,51,8.10
2010,04,03,10,52,8.10
2010,04,03,10,53,9.60
2010,04,03,10,54,9.60
2010,04,03,10,55,16.10
2010,04,03,10,56,16.10
2010,04,03,10,57,16.10
2010,04,03,10,58,20.90
2010,04,03,10,59,6.40
2010,04,03,11,00,9.60
2010,04,03,11,01,9.60
2010,04,03,11,02,16.10
2010,04,03,11,03,14.50
2010,04,03,11,04,11.30
2010,04,03,11,05,17.70
2010,04,03,11,06,20.90
2010,04,03,11,07,20.90
2010,04,03,11,08,19.30
2010,04,03,11,09,17.70
2010,04,03,11,10,19.30
2010,04,03,11,11,8.10
2010,04,03,11,12,16.10
2010,04,03,11,13,17.70
2010,04,03,11,14,20.90
2010,04,03,11,15,22.50
2010,04,03,11,16,19.30
2010,04,03,11,17,12.90
2010,04,03,11,18,9.60
2010,04,03,11,19,9.60
2010,04,03,11,20,11.30
2010,04,03,11,21,11.30
2010,04,03,11,22,9.60
2010,04,03,11,23,9.60
2010,04,03,11,24,6.40
2010,04,03,11,25,9.60
2010,04,03,11,26,11.30
2010,04,03,11,27,6.40
2010,04,03,11,28,9.60
2010,04,03,11,29,16.10
2010,04,03,11,30,16.10
2010,04,03,11,31,9.60
2010,04,03,11,32,6.40
2010,04,03,11,33,8.10
2010,04,03,11,34,6.40
2010,04,03,11,35,8.10
2010,04,03,11,36,9.60
2010,04,03,11,37,11.30
2010,04,03,11,38,6.40
2010,04,03,11,39,4.80
2010,04,03,11,40,6.40
2010,04,03,11,41,4.80
2010,04,03,11,42,6.40
2010,04,03,11,43,6.40
2010,04,03,11,44,4.80
2010,04,03,11,45,3.20
2010,04,03,11,46,3.20
2010,04,03,11,47,1.60
2010,04,03,11,48,0.00
2010,04,03,11,49,0.00
2010,04,03,11,50,4.80
2010,04,03,11,51,3.20
2010,04,03,11,52,1.60
2010,04,03,11,53,4.80
2010,04,03,11,54,3.20
2010,04,03,11,55,3.20
2010,04,03,11,56,3.20
2010,04,03,11,57,1.60
2010,04,03,11,58,0.00
2010,04,03,11,59,0.00
2010,04,03,12,00,0.00
2010,04,03,12,01,1.60
2010,04,03,12,02,3.20
2010,04,03,12,03,1.60
2010,04,03,12,04,3.20
2010,04,03,12,05,4.80
2010,04,03,12,06,0.00
2010,04,03,12,07,3.20
2010,04,03,12,08,3.20
2010,04,03,12,09,3.20
2010,04,03,12,10,3.20
2010,04,03,12,11,3.20
2010,04,03,12,12,4.80
2010,04,03,12,13,6.40
2010,04,03,12,14,6.40
2010,04,03,12,15,3.20
2010,04,03,12,16,4.80
2010,04,03,12,17,4.80
2010,04,03,12,18,3.20
2010,04,03,12,19,4.80
2010,04,03,12,20,1.60
2010,04,03,12,21,4.80
2010,04,03,12,22,9.60
2010,04,03,12,23,9.60
2010,04,03,12,24,8.10
2010,04,03,12,25,6.40
2010,04,03,12,26,8.10
2010,04,03,12,27,8.10
2010,04,03,12,28,1.60
2010,04,03,12,29,1.60
2010,04,03,12,30,0.00
2010,04,03,12,31,1.60
2010,04,03,12,32,1.60
2010,04,03,12,33,3.20
2010,04,03,12,34,0.00
2010,04,03,12,35,0.00
2010,04,03,12,36,0.00
2010,04,03,12,37,3.20
2010,04,03,12,38,3.20
2010,04,03,12,39,1.60
2010,04,03,12,40,1.60
2010,04,03,12,41,3.20
2010,04,03,12,42,1.60
2010,04,03,12,43,4.80
2010,04,03,12,44,4.80
2010,04,03,12,45,8.10
2010,04,03,12,46,6.40
2010,04,03,12,47,9.60
2010,04,03,12,48,6.40
2010,04,03,12,49,6.40
2010,04,03,12,50,4.80
2010,04,03,12,51,4.80
2010,04,03,12,52,6.40
2010,04,03,12,53,4.80
2010,04,03,12,54,8.10
2010,04,03,12,55,3.20
2010,04,03,12,56,4.80
2010,04,03,12,57,6.40
2010,04,03,12,58,4.80
2010,04,03,12,59,8.10
2010,04,03,13,00,6.40
2010,04,03,13,01,9.60
2010,04,03,13,02,14.50
2010,04,03,13,03,11.30
2010,04,03,13,04,11.30
2010,04,03,13,05,11.30
2010,04,03,13,06,9.60
2010,04,03,13,07,8.10
2010,04,03,13,08,8.10
2010,04,03,13,09,9.60
2010,04,03,13,10,14.50
2010,04,03,13,11,9.60
2010,04,03,13,12,6.40
2010,04,03,13,13,8.10
2010,04,03,13,14,8.10
2010,04,03,13,15,8.10
2010,04,03,13,16,6.40
2010,04,03,13,17,9.60
2010,04,03,13,18,8.10
2010,04,03,13,19,3.20
2010,04,03,13,20,9.60
2010,04,03,13,21,11.30
2010,04,03,13,22,8.10
2010,04,03,13,23,8.10
2010,04,03,13,24,11.30
2010,04,03,13,25,11.30
2010,04,03,13,26,6.40
2010,04,03,13,27,4.80
2010,04,03,13,28,6.40
2010,04,03,13,29,6.40
2010,04,03,13,30,4.80
2010,04,03,13,31,8.10
2010,04,03,13,32,8.10
2010,04,03,13,33,11.30
2010,04,03,13,34,6.40
2010,04,03,13,35,11.30
2010,04,03,13,36,11.30
2010,04,03,13,37,8.10
2010,04,03,13,38,4.80
2010,04,03,13,39,6.40
2010,04,03,13,40,11.30
2010,04,03,13,41,4.80
2010,04,03,13,42,9.60
2010,04,03,13,43,14.50
2010,04,03,13,44,12.90
2010,04,03,13,45,6.40
2010,04,03,13,46,6.40
2010,04,03,13,47,8.10
2010,04,03,13,48,4.80
2010,04,03,13,49,8.10
2010,04,03,13,50,8.10
2010,04,03,13,51,4.80
2010,04,03,13,52,6.40
2010,04,03,13,53,4.80
2010,04,03,13,54,6.40
2010,04,03,13,55,9.60
2010,04,03,13,56,6.40
2010,04,03,13,57,6.40
2010,04,03,13,58,17.70
2010,04,03,13,59,6.40
2010,04,03,14,00,12.90
2010,04,03,14,01,4.80
2010,04,03,14,02,1.60
2010,04,03,14,03,1.60
2010,04,03,14,04,4.80
2010,04,03,14,05,6.40
2010,04,03,14,06,3.20
2010,04,03,14,07,1.60
2010,04,03,14,08,3.20
2010,04,03,14,09,4.80
2010,04,03,14,10,9.60
2010,04,03,14,11,8.10
2010,04,03,14,12,9.60
2010,04,03,14,13,9.60
2010,04,03,14,14,6.40
2010,04,03,14,15,6.40
2010,04,03,14,16,11.30
2010,04,03,14,17,8.10
2010,04,03,14,18,9.60
2010,04,03,14,19,11.30
2010,04,03,14,20,8.10
2010,04,03,14,21,12.90
2010,04,03,14,22,14.50
2010,04,03,14,23,12.90
2010,04,03,14,24,4.80
2010,04,03,14,25,4.80
2010,04,03,14,26,6.40
2010,04,03,14,27,4.80
2010,04,03,14,28,9.60
2010,04,03,14,29,6.40
2010,04,03,14,30,11.30
2010,04,03,14,31,11.30
2010,04,03,14,32,11.30
2010,04,03,14,33,8.10
2010,04,03,14,34,9.60
2010,04,03,14,35,8.10
2010,04,03,14,36,6.40
2010,04,03,14,37,4.80
2010,04,03,14,38,8.10
2010,04,03,14,39,3.20
2010,04,03,14,40,9.60
2010,04,03,14,41,11.30
2010,04,03,14,42,9.60
2010,04,03,14,43,8.10
2010,04,03,14,44,9.60
2010,04,03,14,45,11.30
2010,04,03,14,46,4.80
2010,04,03,14,47,6.40
2010,04,03,14,48,6.40
2010,04,03,14,49,3.20
2010,04,03,14,50,8.10
2010,04,03,14,51,11.30
2010,04,03,14,52,17.70
2010,04,03,14,53,11.30
2010,04,03,14,54,4.80
2010,04,03,14,55,4.80
2010,04,03,14,56,6.40
2010,04,03,14,57,14.50
2010,04,03,14,58,17.70
2010,04,03,14,59,11.30
2010,04,03,15,00,9.60
2010,04,03,15,01,6.40
2010,04,03,15,02,4.80
2010,04,03,15,03,3.20
2010,04,03,15,04,3.20
2010,04,03,15,05,6.40
2010,04,03,15,06,14.50
2010,04,03,15,07,8.10
2010,04,03,15,08,3.20
2010,04,03,15,09,14.50
2010,04,03,15,10,6.40
2010,04,03,15,11,8.10
2010,04,03,15,12,6.40
2010,04,03,15,13,9.60
2010,04,03,15,14,11.30
2010,04,03,15,15,8.10
2010,04,03,15,16,4.80
2010,04,03,15,17,4.80
2010,04,03,15,18,4.80
2010,04,03,15,19,8.10
2010,04,03,15,20,6.40
2010,04,03,15,21,4.80
2010,04,03,15,22,6.40
2010,04,03,15,23,11.30
2010,04,03,15,24,11.30
2010,04,03,15,25,6.40
2010,04,03,15,26,4.80
2010,04,03,15,27,14.50
2010,04,03,15,28,16.10
2010,04,03,15,29,16.10
2010,04,03,15,30,11.30
2010,04,03,15,31,11.30
2010,04,03,15,32,4.80
2010,04,03,15,33,8.10
2010,04,03,15,34,16.10
2010,04,03,15,35,11.30
2010,04,03,15,36,8.10
2010,04,03,15,37,4.80
2010,04,03,15,38,14.50
2010,04,03,15,39,8.10
2010,04,03,15,40,11.30
2010,04,03,15,41,8.10
2010,04,03,15,42,8.10
2010,04,03,15,43,6.40
2010,04,03,15,44,8.10
2010,04,03,15,45,9.60
2010,04,03,15,46,16.10
2010,04,03,15,47,14.50
2010,04,03,15,48,16.10
2010,04,03,15,49,11.30
2010,04,03,15,50,9.60
2010,04,03,15,51,11.30
2010,04,03,15,52,3.20
2010,04,03,15,53,3.20
2010,04,03,15,54,4.80
2010,04,03,15,55,3.20
2010,04,03,15,56,9.60
2010,04,03,15,57,17.70
2010,04,03,15,58,11.30
2010,04,03,15,59,16.10
2010,04,03,16,00,16.10
2010,04,03,16,01,8.10
2010,04,03,16,02,8.10
2010,04,03,16,03,9.60
2010,04,03,16,04,8.10
2010,04,03,16,05,4.80
2010,04,03,16,06,4.80
2010,04,03,16,07,6.40
2010,04,03,16,08,3.20
2010,04,03,16,09,8.10
2010,04,03,16,10,6.40
2010,04,03,16,11,16.10
2010,04,03,16,12,11.30
2010,04,03,16,13,11.30
2010,04,03,16,14,14.50
2010,04,03,16,15,16.10
2010,04,03,16,16,19.30
2010,04,03,16,17,16.10
2010,04,03,16,18,11.30
2010,04,03,16,19,8.10
2010,04,03,16,20,8.10
2010,04,03,16,21,11.30
2010,04,03,16,22,11.30
2010,04,03,16,23,8.10
2010,04,03,16,24,6.40
2010,04,03,16,25,11.30
2010,04,03,16,26,6.40
2010,04,03,16,27,1.60
2010,04,03,16,28,8.10
2010,04,03,16,29,9.60
2010,04,03,16,30,16.10
2010,04,03,16,31,11.30
2010,04,03,16,32,11.30
2010,04,03,16,33,9.60
2010,04,03,16,34,9.60
2010,04,03,16,35,8.10
2010,04,03,16,36,4.80
2010,04,03,16,37,6.40
2010,04,03,16,38,11.30
2010,04,03,16,39,6.40
2010,04,03,16,40,6.40
2010,04,03,16,41,8.10
2010,04,03,16,42,8.10
2010,04,03,16,43,8.10
2010,04,03,16,44,6.40
2010,04,03,16,45,6.40
2010,04,03,16,46,6.40
2010,04,03,16,47,3.20
2010,04,03,16,48,6.40
2010,04,03,16,49,8.10
2010,04,03,16,50,9.60
2010,04,03,16,51,9.60
2010,04,03,16,52,11.30
2010,04,03,16,53,6.40
2010,04,03,16,54,4.80
2010,04,03,16,55,14.50
2010,04,03,16,56,9.60
2010,04,03,16,57,6.40
2010,04,03,16,58,6.40
2010,04,03,16,59,3.20
2010,04,03,17,00,6.40
2010,04,03,17,01,8.10
2010,04,03,17,02,8.10
2010,04,03,17,03,8.10
2010,04,03,17,04,8.10
2010,04,03,17,05,8.10
2010,04,03,17,06,6.40
2010,04,03,17,07,9.60
2010,04,03,17,08,1.60
2010,04,03,17,09,1.60
2010,04,03,17,10,1.60
2010,04,03,17,11,0.00
2010,04,03,17,12,6.40
2010,04,03,17,13,11.30
2010,04,03,17,14,8.10
2010,04,03,17,15,3.20
2010,04,03,17,16,4.80
2010,04,03,17,17,6.40
2010,04,03,17,18,4.80
2010,04,03,17,19,8.10
2010,04,03,17,20,3.20
2010,04,03,17,21,8.10
2010,04,03,17,22,6.40
2010,04,03,17,23,6.40
2010,04,03,17,24,4.80
2010,04,03,17,25,3.20
2010,04,03,17,26,1.60
2010,04,03,17,27,4.80
2010,04,03,17,28,6.40
2010,04,03,17,29,3.20
2010,04,03,17,30,1.60
2010,04,03,17,31,3.20
2010,04,03,17,32,3.20
2010,04,03,17,33,8.10
2010,04,03,17,34,4.80